CW0121 Weather Reports


Display with metric or nautical units.
time (UTC)temp
F
wind
direction
speed
MPH
gust
MPH
rain 1hr
in
rain 24hr
in
rain mn
in
humidity
%
barometer
mb
20260904004008 85 309 4.0 6.0 0.00 0.00 0.00 58 1007.1
20260904003512 86 341 3.0 6.0 0.00 0.00 0.00 56 1007.0
20260904003040 87 303 2.0 8.0 0.00 0.00 0.00 54 1002.1
20260904003030 87 308 2.0 8.0 0.00 0.00 0.00 53 1007.0
20260904002512 89 336 4.0 8.0 0.00 0.00 0.00 50 1007.0
20260904002012 89 314 2.0 4.0 0.00 0.00 0.00 58 1006.8
20260904001539 90 274 1.0 3.0 0.00 0.00 0.00 59 1001.7
20260904001528 90 274 1.0 3.0 0.00 0.00 0.00 59 1006.6
20260904001003 91 262 2.0 3.0 0.00 0.00 0.00 58 1006.5
20260904000506 91 253 2.0 3.0 0.00 0.00 0.00 58 1006.5
20260904000038 91 238 1.0 3.0 0.00 0.00 0.00 56 1001.5
20260904000013 91 248 1.0 5.0 0.00 0.00 0.00 56 1006.4
20260903235507 91 249 2.0 5.0 0.00 0.00 0.00 56 1006.4
20260903235007 91 218 3.0 6.0 0.00 0.00 0.00 56 1006.3
20260903234542 92 231 2.0 7.0 0.00 0.00 0.00 55 1001.3
20260903234519 92 231 2.0 7.0 0.00 0.00 0.00 54 1006.3
20260903234007 92 237 4.0 7.0 0.00 0.00 0.00 54 1006.3
20260903233507 93 266 3.0 4.0 0.00 0.00 0.00 54 1006.3
20260903233037 93 243 1.0 4.0 0.00 0.00 0.00 53 1001.2
20260903233022 93 254 2.0 5.0 0.00 0.00 0.00 52 1006.2
20260903232511 93 257 2.0 6.0 0.00 0.00 0.00 53 1006.1
20260903232013 94 238 3.0 6.0 0.00 0.00 0.00 51 1006.0
20260903231536 94 224 3.0 5.0 0.00 0.00 0.00 51 1001.3
20260903231529 94 208 3.0 5.0 0.00 0.00 0.00 49 1006.0
20260903231012 94 212 3.0 5.0 0.00 0.00 0.00 50 1006.0
20260903230513 94 257 3.0 5.0 0.00 0.00 0.00 51 1006.0
20260903230041 94 231 2.0 8.0 0.00 0.00 0.00 51 1005.9
20260903230034 94 226 2.0 8.0 0.00 0.00 0.00 51 1001.2
20260903225503 94 247 2.0 8.0 0.00 0.00 0.00 48 1005.8
20260903225005 94 234 3.0 8.0 0.00 0.00 0.00 48 1005.8
20260903224528 94 245 3.0 8.0 0.00 0.00 0.00 48 1001.2
20260903224517 94 232 3.0 8.0 0.00 0.00 0.00 45 1005.7
20260903224007 94 247 4.0 5.0 0.00 0.00 0.00 46 1005.7
20260903223506 94 223 3.0 9.0 0.00 0.00 0.00 48 1005.7
20260903223028 94 236 2.0 9.0 0.00 0.00 0.00 49 1001.1
20260903223022 94 284 2.0 9.0 0.00 0.00 0.00 47 1005.7
20260903222508 94 231 3.0 11.0 0.00 0.00 0.00 46 1005.7
20260903222010 94 224 3.0 11.0 0.00 0.00 0.00 46 1005.6
20260903221527 94 245 4.0 7.0 0.00 0.00 0.00 46 1001.0
20260903221524 94 227 4.0 7.0 0.00 0.00 0.00 45 1005.6
20260903221010 94 231 3.0 7.0 0.00 0.00 0.00 48 1005.6
20260903220512 94 207 4.0 9.0 0.00 0.00 0.00 48 1005.6
20260903220028 94 213 4.0 10.0 0.00 0.00 0.00 48 1005.6
20260903220024 94 195 3.0 9.0 0.00 0.00 0.00 48 1000.9
20260903215518 94 203 4.0 10.0 0.00 0.00 0.00 47 1005.6
20260903215016 94 227 5.0 9.0 0.00 0.00 0.00 46 1005.6
20260903214536 94 231 3.0 10.0 0.00 0.00 0.00 48 1001.0
20260903214532 94 225 3.0 12.0 0.00 0.00 0.00 47 1005.6
20260903214003 94 191 5.0 12.0 0.00 0.00 0.00 47 1005.6
20260903213508 94 227 6.0 10.0 0.00 0.00 0.00 45 1005.6
20260903213027 94 216 6.0 10.0 0.00 0.00 0.00 45 1001.1
20260903213012 94 203 6.0 10.0 0.00 0.00 0.00 45 1005.7
20260903212506 93 205 5.0 11.0 0.00 0.00 0.00 46 1005.7
20260903212008 93 198 3.0 11.0 0.00 0.00 0.00 48 1005.8
20260903211529 93 239 5.0 11.0 0.00 0.00 0.00 45 1005.7
20260903211521 93 212 5.0 11.0 0.00 0.00 0.00 46 1001.2
20260903211011 93 232 5.0 12.0 0.00 0.00 0.00 45 1005.7
20260903210511 93 216 7.0 12.0 0.00 0.00 0.00 46 1005.8
20260903210025 93 229 6.0 12.0 0.00 0.00 0.00 46 1005.7
20260903210020 93 165 6.0 12.0 0.00 0.00 0.00 47 1001.2
20260903205511 93 217 6.0 12.0 0.00 0.00 0.00 46 1005.7
20260903205011 93 226 5.0 12.0 0.00 0.00 0.00 46 1005.7
20260903204527 93 190 6.0 12.0 0.00 0.00 0.00 48 1005.7
20260903204517 93 193 6.0 12.0 0.00 0.00 0.00 46 1001.0
20260903204015 93 232 5.0 14.0 0.00 0.00 0.00 47 1005.6
20260903203516 92 219 8.0 15.0 0.00 0.00 0.00 46 1005.6
20260903203032 92 200 7.0 15.0 0.00 0.00 0.00 48 1005.6
20260903203015 92 170 6.0 15.0 0.00 0.00 0.00 48 1001.0
20260903202506 92 208 6.0 12.0 0.00 0.00 0.00 48 1005.7
20260903202007 92 230 7.0 12.0 0.00 0.00 0.00 47 1005.7
20260903201530 92 219 6.0 11.0 0.00 0.00 0.00 50 1005.8
20260903201514 92 243 6.0 11.0 0.00 0.00 0.00 49 1001.2
20260903201009 92 243 7.0 11.0 0.00 0.00 0.00 49 1005.8
20260903200509 92 188 7.0 14.0 0.00 0.00 0.00 48 1005.9
20260903200024 92 203 5.0 14.0 0.00 0.00 0.00 47 1005.8
20260903200013 92 199 5.0 14.0 0.00 0.00 0.00 48 1001.3
20260903195509 92 196 7.0 14.0 0.00 0.00 0.00 45 1005.8
20260903195016 92 178 6.0 11.0 0.00 0.00 0.00 46 1005.8
20260903194528 92 200 5.0 10.0 0.00 0.00 0.00 47 1005.7
20260903194513 92 182 5.0 9.0 0.00 0.00 0.00 47 1001.2
20260903194013 92 193 6.0 13.0 0.00 0.00 0.00 46 1005.7
20260903193516 92 203 6.0 13.0 0.00 0.00 0.00 45 1005.7
20260903193033 92 205 5.0 10.0 0.00 0.00 0.00 45 1005.6
20260903193012 92 191 4.0 10.0 0.00 0.00 0.00 45 1001.0
20260903192521 92 200 7.0 10.0 0.00 0.00 0.00 45 1005.5
20260903192016 92 259 5.0 10.0 0.00 0.00 0.00 45 1005.4
20260903191534 92 233 5.0 11.0 0.00 0.00 0.00 46 1005.4
20260903191519 92 226 4.0 11.0 0.00 0.00 0.00 47 1001.0
20260903191007 92 188 6.0 11.0 0.00 0.00 0.00 45 1005.4
20260903190513 92 207 6.0 10.0 0.00 0.00 0.00 44 1005.4
20260903190018 92 182 6.0 10.0 0.00 0.00 0.00 43 1005.4
20260903190009 92 209 6.0 10.0 0.00 0.00 0.00 43 1001.0
20260903185508 92 174 5.0 10.0 0.00 0.00 0.00 44 1005.4
20260903185008 92 195 6.0 10.0 0.00 0.00 0.00 44 1005.5
20260903184523 92 200 5.0 10.0 0.00 0.00 0.00 45 1005.6
20260903184508 92 180 5.0 10.0 0.00 0.00 0.00 45 1001.2
20260903184012 91 205 5.0 9.0 0.00 0.00 0.00 45 1005.7
20260903183513 91 185 7.0 9.0 0.00 0.00 0.00 42 1005.7
20260903183027 91 219 5.0 9.0 0.00 0.00 0.00 47 1005.7
20260903183006 91 210 4.0 9.0 0.00 0.00 0.00 48 1001.2
20260903182515 91 201 5.0 9.0 0.00 0.00 0.00 46 1005.7
20260903182017 91 210 5.0 9.0 0.00 0.00 0.00 45 1005.7
20260903181531 91 203 6.0 9.0 0.00 0.00 0.00 42 1005.8
20260903181504 91 207 5.0 9.0 0.00 0.00 0.00 43 1001.2
20260903181014 91 163 5.0 9.0 0.00 0.00 0.00 47 1005.8
20260903180519 91 189 6.0 9.0 0.00 0.00 0.00 48 1005.8
20260903180101 91 230 3.0 9.0 0.00 0.00 0.00 49 1001.5
20260903180040 91 249 3.0 8.0 0.00 0.00 0.00 49 1005.9
20260903175510 90 216 5.0 9.0 0.00 0.00 0.00 48 1005.9
20260903175007 90 234 4.0 9.0 0.00 0.00 0.00 47 1005.9
20260903174603 90 225 4.0 8.0 0.00 0.00 0.00 46 1001.5
20260903174518 90 226 5.0 8.0 0.00 0.00 0.00 45 1006.0
20260903174013 90 227 4.0 8.0 0.00 0.00 0.00 47 1005.9
20260903173508 90 141 5.0 8.0 0.00 0.00 0.00 46 1005.8
20260903173104 90 204 4.0 8.0 0.00 0.00 0.00 49 1001.5
20260903173023 90 155 4.0 8.0 0.00 0.00 0.00 46 1005.9
20260903172513 89 205 2.0 7.0 0.00 0.00 0.00 50 1005.9
20260903172014 89 201 5.0 7.0 0.00 0.00 0.00 49 1005.9
20260903171600 89 156 4.0 9.0 0.00 0.00 0.00 52 1001.7
20260903171528 89 134 4.0 9.0 0.00 0.00 0.00 52 1006.1
20260903171016 88 195 4.0 9.0 0.00 0.00 0.00 54 1006.3
20260903170516 88 167 5.0 8.0 0.00 0.00 0.00 53 1006.3
20260903170051 88 123 4.0 8.0 0.00 0.00 0.00 55 1002.0
20260903170041 88 149 4.0 8.0 0.00 0.00 0.00 55 1006.3
20260903165517 87 194 4.0 9.0 0.00 0.00 0.00 55 1006.3
20260903165016 87 188 5.0 9.0 0.00 0.00 0.00 57 1006.2
20260903164553 87 207 4.0 8.0 0.00 0.00 0.00 59 1001.9
20260903164534 87 234 5.0 9.0 0.00 0.00 0.00 59 1006.4
20260903164007 87 220 4.0 11.0 0.00 0.00 0.00 63 1006.5
20260903163506 86 168 3.0 11.0 0.00 0.00 0.00 62 1006.5
20260903163044 86 143 6.0 10.0 0.00 0.00 0.00 63 1002.2
20260903163019 86 167 6.0 9.0 0.00 0.00 0.00 63 1006.5
20260903162510 85 165 5.0 8.0 0.00 0.00 0.00 65 1006.5
20260903162013 85 150 5.0 8.0 0.00 0.00 0.00 66 1006.6
20260903161539 85 160 4.0 9.0 0.00 0.00 0.00 68 1002.3
20260903161505 85 145 3.0 9.0 0.00 0.00 0.00 65 1006.6
20260903161002 84 139 5.0 11.0 0.00 0.00 0.00 68 1006.7
20260903160503 84 129 5.0 11.0 0.00 0.00 0.00 69 1006.8
20260903160036 84 200 7.0 11.0 0.00 0.00 0.00 70 1002.5
20260903160007 84 153 7.0 11.0 0.00 0.00 0.00 69 1006.8
20260903155503 83 244 5.0 11.0 0.00 0.00 0.00 70 1006.8
20260903155003 83 136 6.0 11.0 0.00 0.00 0.00 71 1006.9
20260903154532 83 154 5.0 9.0 0.00 0.00 0.00 72 1002.7
20260903154503 82 154 5.0 10.0 0.00 0.00 0.00 72 1007.0
20260903154001 82 205 5.0 10.0 0.00 0.00 0.00 73 1007.0
20260903153504 81 240 4.0 9.0 0.00 0.00 0.00 74 1006.9
20260903153028 81 155 4.0 8.0 0.00 0.00 0.00 75 1002.6
20260903153004 81 174 4.0 8.0 0.00 0.00 0.00 74 1006.9
20260903152502 81 124 4.0 9.0 0.00 0.00 0.00 76 1006.9
20260903152002 81 212 4.0 9.0 0.00 0.00 0.00 75 1007.1
20260903151529 80 194 5.0 9.0 0.00 0.00 0.00 76 1002.8
20260903151504 80 172 5.0 9.0 0.00 0.00 0.00 77 1007.2
20260903151004 80 149 5.0 8.0 0.00 0.00 0.00 78 1007.2
20260903150503 79 213 4.0 8.0 0.00 0.00 0.00 78 1007.2
20260903150021 79 239 3.0 7.0 0.00 0.00 0.00 80 1002.8
20260903150010 79 200 4.0 7.0 0.00 0.00 0.00 79 1007.0
20260903145506 78 202 3.0 6.0 0.00 0.00 0.00 80 1007.1
20260903145003 77 161 3.0 5.0 0.00 0.00 0.00 81 1007.2
20260903144517 77 200 1.0 4.0 0.00 0.00 0.00 83 1002.9
20260903144506 77 190 2.0 4.0 0.00 0.00 0.00 83 1007.1
20260903144003 76 195 2.0 4.0 0.00 0.00 0.00 84 1007.1
20260903143502 76 136 1.0 4.0 0.00 0.00 0.00 84 1007.2
20260903143014 75 165 2.0 4.0 0.00 0.00 0.00 85 1003.0
20260903143004 75 204 2.0 4.0 0.00 0.00 0.00 84 1007.2
20260903142503 75 198 1.0 2.0 0.00 0.00 0.00 85 1007.1
20260903142003 75 129 1.0 5.0 0.00 0.00 0.00 85 1007.0
20260903141512 75 157 2.0 5.0 0.00 0.00 0.00 86 1003.0
20260903141504 74 162 2.0 5.0 0.00 0.00 0.00 86 1007.2
20260903141002 74 208 3.0 6.0 0.00 0.00 0.00 86 1007.3
20260903140503 74 155 3.0 6.0 0.00 0.00 0.00 86 1007.2
20260903140028 74 143 1.0 6.0 0.00 0.00 0.00 86 1002.8
20260903140012 74 182 2.0 7.0 0.00 0.00 0.00 85 1007.1
20260903135506 75 245 4.0 7.0 0.00 0.00 0.00 84 1007.2
20260903135003 74 165 4.0 7.0 0.00 0.00 0.00 84 1006.8
20260903134516 75 203 2.0 5.0 0.00 0.00 0.00 84 1002.4
20260903134505 75 176 2.0 6.0 0.00 0.00 0.00 84 1006.5
20260903134003 75 132 2.0 6.0 0.00 0.00 0.00 84 1006.6
20260903133503 75 143 1.0 7.0 0.00 0.00 0.00 84 1006.6
20260903133009 75 147 1.0 7.0 0.00 0.00 0.00 84 1002.4
20260903133004 75 119 1.0 8.0 0.00 0.00 0.00 84 1006.6
20260903132503 75 114 2.0 8.0 0.00 0.00 0.00 84 1006.6
20260903132002 74 94 4.0 9.0 0.00 0.00 0.00 84 1006.6
20260903131509 74 127 3.0 9.0 0.00 0.00 0.00 85 1002.4
20260903131506 74 130 3.0 9.0 0.00 0.00 0.00 84 1006.6
20260903131002 74 156 4.0 8.0 0.00 0.00 0.00 85 1006.6
20260903130507 74 120 3.0 8.0 0.00 0.00 0.00 85 1006.6
20260903130005 73 148 3.0 7.0 0.00 0.00 0.00 86 1002.5
20260903130003 73 146 3.0 7.0 0.00 0.00 0.00 86 1006.5
20260903125503 73 170 3.0 7.0 0.00 0.00 0.00 86 1006.5
20260903125002 73 101 4.0 7.0 0.00 0.00 0.00 87 1006.5
20260903124506 73 126 3.0 7.0 0.00 0.00 0.00 87 1006.5
20260903124504 73 122 2.0 7.0 0.00 0.00 0.00 88 1002.4
20260903124004 73 96 3.0 7.0 0.00 0.00 0.00 87 1006.5
20260903123503 72 152 3.0 7.0 0.00 0.00 0.00 88 1006.6
20260903123005 72 98 2.0 8.0 0.00 0.00 0.00 88 1006.7
20260903123003 72 122 2.0 8.0 0.00 0.00 0.00 89 1002.5
20260903122504 72 63 4.0 8.0 0.00 0.00 0.00 89 1006.7
20260903122004 72 129 3.0 5.0 0.00 0.00 0.00 89 1006.8
20260903121507 71 84 3.0 6.0 0.00 0.00 0.00 89 1006.8
20260903121501 71 84 3.0 5.0 0.00 0.00 0.00 90 1002.7
20260903121001 71 124 2.0 6.0 0.00 0.00 0.00 90 1006.9
20260903120503 71 115 2.0 5.0 0.00 0.00 0.00 90 1006.9
20260903120113 71 106 3.0 6.0 0.00 0.00 0.00 90 1002.8
20260903120008 71 117 3.0 6.0 0.00 0.00 0.00 90 1007.0
20260903115501 71 90 2.0 6.0 0.00 0.00 0.00 90 1007.0
20260903115003 71 122 3.0 6.0 0.00 0.00 0.00 90 1007.1
20260903114559 71 119 3.0 7.0 0.00 0.01 0.00 90 1003.0
20260903114510 71 76 4.0 7.0 0.00 0.00 0.00 90 1007.1
20260903114002 71 76 4.0 8.0 0.00 0.00 0.00 90 1007.0
20260903113502 71 120 4.0 8.0 0.00 0.00 0.00 90 1007.0
20260903113059 71 110 4.0 8.0 0.00 0.01 0.00 90 1002.9
20260903113006 71 89 4.0 11.0 0.00 0.00 0.00 90 1007.0
20260903112503 71 80 4.0 11.0 0.00 0.00 0.00 90 1007.0
20260903112003 70 106 3.0 8.0 0.00 0.00 0.00 90 1007.2
20260903111601 70 86 3.0 8.0 0.00 0.01 0.00 90 1003.2
20260903111508 70 63 4.0 8.0 0.00 0.00 0.00 90 1007.1
20260903111004 70 95 4.0 7.0 0.00 0.00 0.00 90 1007.2
20260903110504 70 87 1.0 7.0 0.00 0.00 0.00 89 1007.3
20260903110054 71 75 1.0 7.0 0.00 0.01 0.00 90 1003.3
20260903110009 71 80 2.0 10.0 0.00 0.01 0.00 89 1007.4
20260903105503 71 79 3.0 10.0 0.00 0.01 0.00 89 1007.4
20260903105004 71 102 4.0 9.0 0.00 0.01 0.00 89 1007.4
20260903104553 71 115 5.0 9.0 0.00 0.01 0.00 90 1003.4
20260903104509 71 107 6.0 9.0 0.00 0.01 0.00 89 1007.5
20260903104004 71 86 4.0 8.0 0.00 0.01 0.00 89 1007.5
20260903103502 71 123 3.0 8.0 0.00 0.01 0.00 89 1007.7
20260903103053 71 82 1.0 4.0 0.00 0.01 0.00 89 1003.6
20260903103009 71 116 2.0 4.0 0.00 0.01 0.00 89 1007.7
20260903102503 71 120 2.0 8.0 0.00 0.01 0.00 89 1007.6
20260903102003 71 131 3.0 9.0 0.00 0.01 0.00 89 1007.6
20260903101553 71 116 4.0 10.0 0.00 0.01 0.00 89 1003.7
20260903101510 71 110 5.0 10.0 0.00 0.01 0.00 89 1007.6
20260903101003 71 73 4.0 10.0 0.00 0.01 0.00 89 1007.6
20260903100505 71 110 4.0 10.0 0.00 0.01 0.00 89 1007.5
20260903100052 71 119 3.0 10.0 0.00 0.01 0.00 89 1003.5
20260903100011 71 87 3.0 10.0 0.00 0.01 0.00 89 1007.5
20260903095502 71 102 3.0 11.0 0.00 0.01 0.00 89 1007.5
20260903095004 71 89 5.0 11.0 0.00 0.01 0.00 89 1007.4
20260903094559 70 59 3.0 9.0 0.00 0.01 0.00 89 1003.5
20260903094508 71 83 3.0 9.0 0.00 0.01 0.00 89 1007.4
20260903094007 70 105 4.0 9.0 0.00 0.01 0.00 89 1007.5
20260903093504 70 109 4.0 8.0 0.00 0.01 0.00 89 1007.6
20260903093049 70 101 2.0 8.0 0.00 0.01 0.00 89 1003.6
20260903093010 70 89 3.0 8.0 0.00 0.01 0.00 89 1007.6
20260903092503 70 72 5.0 8.0 0.00 0.01 0.00 89 1007.5
20260903092006 70 92 5.0 9.0 0.00 0.01 0.00 88 1007.5
20260903091546 71 129 4.0 10.0 0.00 0.01 0.00 89 1003.4
20260903091510 71 88 5.0 10.0 0.00 0.01 0.00 88 1007.5
20260903091003 71 94 4.0 10.0 0.00 0.01 0.00 88 1007.5
20260903090503 71 105 4.0 8.0 0.00 0.01 0.00 88 1007.5
20260903090055 71 125 2.0 8.0 0.00 0.01 0.00 88 1003.5
20260903090019 71 88 3.0 8.0 0.00 0.01 0.00 88 1007.5
20260903085502 71 72 4.0 8.0 0.00 0.01 0.00 88 1007.6
20260903085006 71 113 2.0 7.0 0.00 0.01 0.00 88 1007.8
20260903084540 71 70 3.0 7.0 0.00 0.01 0.00 88 1004.0
20260903084524 71 61 4.0 7.0 0.00 0.01 0.00 87 1008.0
20260903084006 71 56 4.0 7.0 0.00 0.01 0.00 87 1008.2
20260903083506 71 58 3.0 7.0 0.00 0.01 0.00 87 1008.2
20260903083053 71 60 3.0 6.0 0.00 0.01 0.00 87 1004.3
20260903083012 71 53 3.0 7.0 0.00 0.01 0.00 87 1008.3
20260903082505 72 67 4.0 8.0 0.00 0.01 0.00 86 1008.3
20260903082003 72 65 4.0 8.0 0.00 0.01 0.00 86 1008.4
20260903081536 72 58 3.0 7.0 0.00 0.01 0.00 86 1004.3
20260903081511 72 57 3.0 7.0 0.00 0.01 0.00 86 1008.4
20260903081009 72 49 4.0 8.0 0.00 0.01 0.00 86 1008.3
20260903080511 72 88 4.0 8.0 0.00 0.01 0.00 86 1008.3
20260903080035 72 77 4.0 8.0 0.00 0.01 0.00 86 1004.2
20260903080014 72 94 4.0 8.0 0.00 0.01 0.00 85 1008.2
20260903075504 72 82 4.0 9.0 0.00 0.01 0.00 85 1008.2
20260903075004 73 93 3.0 9.0 0.00 0.01 0.00 85 1008.2
20260903074532 73 134 4.0 9.0 0.00 0.01 0.00 85 1004.2
20260903074512 73 148 4.0 9.0 0.00 0.01 0.00 85 1008.2
20260903074007 73 108 4.0 9.0 0.00 0.01 0.00 85 1008.2
20260903073503 73 127 3.0 8.0 0.00 0.01 0.00 85 1008.3
20260903073031 73 138 3.0 7.0 0.00 0.01 0.00 85 1004.4
20260903073013 73 25 3.0 8.0 0.00 0.01 0.00 85 1008.4
20260903072503 73 98 3.0 9.0 0.00 0.01 0.00 85 1008.5
20260903072005 73 108 3.0 9.0 0.00 0.01 0.00 85 1008.6
20260903071528 73 118 3.0 11.0 0.00 0.01 0.00 85 1004.5
20260903071513 72 98 4.0 11.0 0.00 0.01 0.00 85 1008.5
20260903071006 72 84 4.0 11.0 0.00 0.01 0.00 85 1008.6
20260903070506 72 86 4.0 11.0 0.00 0.01 0.00 85 1008.5
20260903070026 72 91 3.0 11.0 0.00 0.01 0.00 85 1004.6
20260903070022 72 100 4.0 11.0 0.00 0.01 0.00 85 1008.6
20260903065506 72 124 5.0 11.0 0.00 0.01 0.00 84 1008.7
20260903065006 73 92 5.0 11.0 0.00 0.01 0.00 84 1008.8
20260903064522 73 108 6.0 11.0 0.00 0.01 0.00 84 1004.9
20260903064506 73 99 6.0 11.0 0.00 0.01 0.00 84 1008.9
20260903064004 73 107 4.0 8.0 0.00 0.01 0.00 83 1009.0
20260903063505 73 58 3.0 8.0 0.00 0.01 0.00 83 1009.1
20260903063032 73 101 3.0 13.0 0.00 0.01 0.00 83 1005.2
20260903063009 73 98 3.0 13.0 0.00 0.01 0.00 83 1009.1
20260903062507 73 107 4.0 13.0 0.00 0.01 0.00 82 1009.1
20260903062007 73 104 6.0 11.0 0.00 0.01 0.00 82 1009.2
20260903061520 73 86 5.0 11.0 0.00 0.01 0.00 82 1009.2
20260903061518 73 115 4.0 11.0 0.00 0.01 0.00 82 1005.1
20260903061005 74 93 5.0 11.0 0.00 0.01 0.00 81 1009.2
20260903060507 74 113 6.0 13.0 0.00 0.01 0.00 81 1009.2
20260903060035 74 113 6.0 13.0 0.00 0.01 0.00 81 1005.4
20260903060020 74 108 6.0 13.0 0.00 0.01 0.00 81 1009.3
20260903055510 74 83 5.0 12.0 0.00 0.01 0.00 81 1009.3
20260903055008 74 144 6.0 11.0 0.00 0.01 0.00 81 1009.2
20260903054516 74 56 4.0 10.0 0.00 0.01 0.00 81 1009.3
20260903054512 74 83 4.0 10.0 0.00 0.01 0.00 81 1005.5
20260903054004 74 94 4.0 9.0 0.00 0.01 0.00 81 1009.4
20260903053504 73 50 5.0 8.0 0.00 0.01 0.00 81 1009.5
20260903053010 73 137 3.0 11.0 0.00 0.01 0.00 81 1009.5
20260903052506 73 57 3.0 11.0 0.00 0.01 0.00 81 1009.6
20260903052004 73 53 4.0 10.0 0.00 0.01 0.00 80 1009.5
20260903051513 73 68 4.0 11.0 0.00 0.01 0.00 80 1009.7
20260903051506 73 58 4.0 11.0 0.00 0.01 0.00 81 1005.8
20260903051005 73 86 4.0 11.0 0.00 0.01 0.00 80 1009.7
20260903050509 72 51 3.0 10.0 0.00 0.01 0.00 80 1009.8
20260903050036 72 59 6.0 11.0 0.00 0.01 0.00 80 1009.7
20260903050002 72 49 5.0 11.0 0.00 0.01 0.00 80 1005.7
20260903045510 72 93 6.0 11.0 0.00 0.01 0.01 79 1009.7
20260903045007 72 77 4.0 9.0 0.00 0.01 0.01 79 1009.8
20260903044519 72 37 6.0 11.0 0.00 0.01 0.01 78 1009.8
20260903044500 72 37 5.0 11.0 0.00 0.01 0.01 79 1005.9
20260903044009 72 56 5.0 11.0 0.00 0.01 0.01 78 1009.9
20260903043507 72 48 4.0 9.0 0.00 0.01 0.01 78 1010.0
20260903043059 71 48 4.0 8.0 0.00 0.01 0.01 78 1006.1
20260903043018 71 58 5.0 8.0 0.00 0.01 0.01 77 1010.0
20260903042502 71 59 5.0 8.0 0.00 0.01 0.01 77 1010.0
20260903042003 71 63 4.0 7.0 0.00 0.01 0.01 77 1010.0
20260903041559 71 77 3.0 7.0 0.00 0.01 0.01 77 1006.3
20260903041518 71 60 4.0 7.0 0.00 0.01 0.01 76 1010.1
20260903041006 70 70 3.0 9.0 0.00 0.01 0.01 76 1010.1
20260903040505 70 40 3.0 9.0 0.00 0.01 0.01 76 1010.1
20260903040104 70 53 3.0 8.0 0.00 0.01 0.01 76 1006.3
20260903040016 70 62 3.0 8.0 0.00 0.01 0.01 75 1010.1
20260903035510 71 56 5.0 9.0 0.00 0.01 0.01 75 1010.1
20260903035006 71 32 4.0 9.0 0.00 0.01 0.01 74 1010.2
20260903034557 71 56 4.0 9.0 0.00 0.01 0.01 75 1006.4
20260903034526 71 41 4.0 9.0 0.00 0.01 0.01 74 1010.2
20260903034009 71 61 5.0 10.0 0.00 0.01 0.01 74 1010.2
20260903033511 71 63 5.0 10.0 0.00 0.01 0.01 74 1010.1
20260903033056 71 56 4.0 9.0 0.00 0.01 0.01 75 1006.4
20260903033023 71 55 6.0 9.0 0.00 0.01 0.01 74 1010.3
20260903032514 71 60 4.0 8.0 0.00 0.01 0.01 74 1010.3
20260903032009 71 53 4.0 8.0 0.00 0.01 0.01 73 1010.3
20260903031556 71 38 3.0 8.0 0.00 0.01 0.01 73 1006.4
20260903031520 71 30 4.0 8.0 0.00 0.01 0.01 73 1010.3
20260903031005 71 53 4.0 8.0 0.00 0.01 0.01 72 1010.3
20260903030510 71 58 5.0 10.0 0.00 0.01 0.01 72 1010.3
20260903030054 71 75 5.0 10.0 0.00 0.01 0.01 72 1006.5
20260903030013 72 45 6.0 10.0 0.00 0.01 0.01 72 1010.3
20260903025507 72 79 5.0 9.0 0.00 0.01 0.01 71 1010.3
20260903025009 72 46 5.0 9.0 0.00 0.01 0.01 71 1010.3
20260903024556 72 44 5.0 8.0 0.00 0.01 0.01 71 1006.6
20260903024518 72 66 6.0 8.0 0.00 0.01 0.01 71 1010.4
20260903024012 72 50 5.0 9.0 0.00 0.01 0.01 71 1010.3
20260903023508 72 68 5.0 9.0 0.00 0.01 0.01 71 1010.3
20260903023102 72 53 5.0 9.0 0.00 0.01 0.01 72 1006.5
20260903023030 72 44 5.0 9.0 0.00 0.01 0.01 71 1010.3
20260903022511 72 46 5.0 9.0 0.00 0.01 0.01 71 1010.5
20260903022012 72 67 6.0 9.0 0.00 0.01 0.01 71 1010.4
20260903021602 73 34 4.0 9.0 0.00 0.01 0.01 71 1006.5
20260903021525 73 56 4.0 9.0 0.00 0.01 0.01 71 1010.3
20260903021010 73 55 5.0 8.0 0.00 0.01 0.01 71 1010.4
20260903020509 73 58 5.0 9.0 0.00 0.01 0.01 71 1010.4
20260903020055 73 70 5.0 0.0 0.00 0.00 0.01 71 1006.4
20260903020051 73 79 4.0 10.0 0.00 0.01 0.01 71 1010.4
20260903015506 73 44 5.0 10.0 0.00 0.01 0.01 71 1010.3
20260903015007 73 55 5.0 9.0 0.00 0.01 0.01 70 1010.3
20260903014603 74 49 4.0 9.0 0.00 0.01 0.01 71 1006.3
20260903014514 74 49 5.0 10.0 0.00 0.01 0.01 70 1010.2
20260903014007 74 50 5.0 10.0 0.00 0.01 0.01 70 1010.2
20260903013507 74 46 5.0 8.0 0.00 0.01 0.01 70 1010.1
20260903013054 74 61 4.0 8.0 0.00 0.01 0.01 69 1006.3
20260903013023 74 53 4.0 10.0 0.00 0.01 0.01 69 1010.1
20260903012509 75 61 4.0 10.0 0.00 0.01 0.01 69 1010.0
20260903012010 75 62 3.0 9.0 0.00 0.01 0.01 68 1010.1
20260903011550 75 58 3.0 8.0 0.00 0.01 0.01 68 1006.3
20260903011527 75 65 4.0 8.0 0.00 0.01 0.01 68 1010.2
20260903011010 75 44 5.0 8.0 0.00 0.01 0.01 67 1010.1
20260903010518 76 45 6.0 10.0 0.00 0.01 0.01 66 1010.2
20260903010051 76 52 4.0 10.0 0.00 0.01 0.01 66 1006.3
20260903010026 76 62 5.0 10.0 0.00 0.01 0.01 66 1010.2
20260903005515 76 66 6.0 10.0 0.00 0.01 0.01 65 1010.3
20260903005015 77 55 6.0 11.0 0.00 0.01 0.01 64 1010.2
20260903004552 77 57 5.0 11.0 0.00 0.01 0.01 64 1006.3
20260903004525 77 44 5.0 11.0 0.00 0.01 0.01 64 1010.3